www.pogodaiklimat.ru

Погода и климат >> Архив погоды >> Австралия >> Южная Австралия >> Уудинна


ПОГОДА в Уудинне

  • Прогноз погоды в Уудинне
  • Монитор погоды в Уудинне

АРХИВ ПОГОДЫ в Уудинне

Время (UTC), дата Ветер
(напр.,м/с)
 
Видим.   Явления Облачность Т
(С)
Тd
(С)
f
(%)
Тe
(С)
Тes
(С)
Комфортность P
(гПа)
Po
(гПа)
Тmin
(С)
Tmax
(С)
R
(мм)
R24
(мм)
S
(см)
10 12.07 ЮЗ 9 н/о н/о +10.3 +8.2 87 +6 +6 1021.5 1011.0
11 12.07 ЮЗ 6 н/о в посл. час дождь {туман} н/о +10.1 +8.4 89 +7 +7 1022.4 1011.9 0.4
13 12.07 ЮЗ 4 н/о н/о +8.7 +7.0 89 +6 +6 1023.9 1013.3
14 12.07 ЮЗ 4 н/о {туман} н/о +8.2 +6.3 88 +5 +5 1024.4 1013.8 +15.6
16 12.07 З 4 н/о н/о +5.9 +4.1 88 +2 +2 1024.9 1014.3
17 12.07 З 4 н/о в посл. час дождь {туман} н/о +5.8 +4.0 88 +2 +2 1025.2 1014.6 0.8
19 12.07 З 4 н/о н/о +5.8 +3.5 85 +2 +2 1026.2 1015.6
20 12.07 З 4 н/о н/о +5.7 +3.2 84 +2 +2 1026.8 1016.2
22 12.07 З 3 н/о н/о +3.9 +1.6 85 +1 +1 1028.6 1018.0
23 12.07 З 4 н/о н/о +6.5 +4.7 88 +3 +3 1029.3 1018.7 3
01 13.07 ЮЗ 5 н/о н/о +11.8 +6.7 71 +10 +10 1030.8 1020.2
02 13.07 Ю 7 н/о н/о +13.1 +5.5 60 +11 +11 1031.0 1020.4 +3.9
04 13.07 Ю 6 н/о н/о +13.3 +4.5 55 +11 +11 1030.6 1020.0
05 13.07 Ю 7 н/о н/о +13.5 +4.6 55 +11 +11 1030.6 1020.0
07 13.07 Ю 5 н/о н/о +12.1 +5.7 65 +10 +10 1031.9 1021.3
08 13.07 Ю 6 н/о н/о +10.8 +6.2 73 +8 +8 1032.5 1021.8
10 13.07 З 3 н/о н/о +6.7 +4.7 87 +4 +4 1033.4 1022.7
11 13.07 штиль 0 н/о н/о +6.6 +5.2 91 +6 +6 1033.6 1022.9
13 13.07 СЗ 2 н/о н/о +4.1 +2.8 91 +2 +2 1033.6 1022.9
14 13.07 СЗ 2 н/о н/о +3.8 +2.8 93 +1 +1 1033.2 1022.5 +14.5
17 13.07 СЗ 1 н/о н/о +7.0 +5.5 90 +6 +6 1032.6 1021.9
19 13.07 З 3 н/о н/о +8.1 +6.4 89 +6 +6 1032.7 1022.0
20 13.07 СЗ 3 н/о н/о +8.4 +6.5 88 +6 +6 1033.0 1022.3
22 13.07 СЗ 3 н/о н/о +7.6 +6.1 90 +5 +5 1034.3 1023.6
23 13.07 СЗ 4 н/о н/о +8.5 +7.4 93 +5 +5 1034.9 1024.2
01 14.07 СЗ 5 н/о н/о +11.1 +9.5 90 +8 +8 1035.3 1024.6
02 14.07 З 4 н/о н/о +12.2 +10.4 89 +10 +10 1034.9 1024.2 +3.5
04 14.07 З 6 н/о н/о +13.0 +10.9 87 +10 +10 1032.8 1022.1
05 14.07 ЮЗ 7 н/о в посл. час дождь {туман} н/о +12.9 +10.8 87 +10 +10 1032.9 1022.2 0.6
07 14.07 ЮЗ 6 н/о н/о +12.4 +9.2 81 +10 +10 1032.5 1021.8
08 14.07 ЮЗ 7 н/о н/о +12.0 +7.3 73 +9 +9 1032.6 1021.9
10 14.07 ЮЗ 4 н/о н/о +11.3 +8.0 80 +9 +9 1033.1 1022.4
11 14.07 ЮЗ 5 н/о н/о +11.4 +7.1 75 +9 +9 1033.4 1022.7
13 14.07 З 4 н/о н/о +9.8 +8.2 90 +7 +7 1033.4 1022.7
14 14.07 ЮЗ 4 н/о н/о +9.8 +8.2 90 +7 +7 1032.8 1022.1 +14.4
16 14.07 ЮЗ 3 н/о н/о +10.2 +7.8 85 +8 +8 1032.2 1021.6
17 14.07 Ю 4 н/о н/о +10.7 +6.5 75 +8 +8 1031.9 1021.3
19 14.07 Ю 3 н/о н/о +10.4 +6.9 79 +8 +8 1030.9 1020.3
20 14.07 Ю 3 н/о н/о +10.0 +7.3 83 +8 +8 1031.0 1020.4
22 14.07 ЮЗ 4 н/о н/о +9.8 +7.7 87 +7 +7 1032.8 1022.1
23 14.07 ЮЗ 4 н/о н/о +10.2 +7.8 85 +8 +8 1033.3 1022.6 0.6
01 15.07 ЮЗ 4 н/о н/о +12.6 +8.3 75 +11 +11 1034.2 1023.5
02 15.07 ЮЗ 5 н/о н/о +13.4 +7.8 69 +12 +12 1034.0 1023.3 +9.3
04 15.07 ЮЗ 4 н/о н/о +14.0 +9.0 72 +13 +13 1032.2 1021.6
05 15.07 ЮЗ 4 н/о н/о +14.2 +7.5 64 +13 +13 1031.5 1020.9
07 15.07 ЮЗ 5 н/о н/о +13.7 +8.1 69 +12 +12 1031.1 1020.5
08 15.07 ЮЗ 3 н/о н/о +11.3 +7.4 77 +10 +10 1031.2 1020.6
10 15.07 ЮЗ 4 н/о н/о +9.5 +7.3 86 +7 +7 1032.1 1021.5
11 15.07 ЮЗ 3 н/о н/о +9.3 +7.4 88 +7 +7 1032.1 1021.5
13 15.07 Ю 3 н/о н/о +9.6 +7.7 88 +8 +8 1032.1 1021.5
14 15.07 Ю 3 н/о н/о +9.9 +8.0 88 +8 +8 1032.0 1021.4 +15.0
16 15.07 Ю 2 н/о н/о +9.1 +7.9 92 +8 +8 1031.2 1020.6
17 15.07 штиль 0 н/о н/о +8.0 +6.9 93 +7 +7 1031.0 1020.4
19 15.07 СЗ 2 н/о н/о +6.3 +5.3 93 +4 +4 1030.9 1020.3
20 15.07 СЗ 1 н/о в посл. час дождь {туман} н/о +6.6 +5.7 94 +5 +5 1030.6 1020.0
22 15.07 СВ 1 н/о н/о +4.5 +3.6 94 +3 +3 1031.2 1020.6
23 15.07 штиль 0 н/о {туман} н/о +7.2 +6.3 94 +6 +6 1031.3 1020.7 0.2
01 16.07 З 2 н/о н/о +11.1 +9.4 89 +10 +10 1031.9 1021.3
02 16.07 З 2 н/о н/о +12.1 +10.5 90 +11 +11 1031.5 1020.9 +4.2
04 16.07 ЮЗ 3 н/о н/о +13.4 +10.0 80 +12 +12 1029.7 1019.1
05 16.07 З 4 н/о н/о +13.9 +11.1 83 +13 +13 1029.1 1018.5
07 16.07 З 4 н/о н/о +14.0 +11.3 84 +12 +12 1028.6 1018.0
08 16.07 ЮЗ 3 н/о н/о +12.8 +11.4 91 +12 +12 1028.7 1018.1
10 16.07 З 3 н/о н/о +10.4 +8.8 90 +8 +8 1029.1 1018.5
11 16.07 штиль 0 н/о н/о +8.9 +7.7 92 +8 +8 1029.3 1018.7
13 16.07 СЗ 3 н/о н/о +9.1 +8.0 93 +7 +7 1029.2 1018.6
14 16.07 СЗ 3 н/о туман местами н/о +9.8 +8.9 94 +8 +8 1028.7 1018.1 +15.2
16 16.07 З 2 н/о н/о +10.0 +9.1 94 +8 +8 1027.4 1016.8
17 16.07 З 3 н/о в посл. час дождь {туман} н/о +9.9 +9.0 94 +8 +8 1027.1 1016.5 0.4
19 16.07 З 4 н/о н/о +9.8 +8.9 94 +7 +7 1026.5 1015.9
20 16.07 З 4 н/о {туман} н/о +9.1 +8.2 94 +6 +6 1026.4 1015.8
22 16.07 З 3 н/о н/о +8.8 +7.6 92 +6 +6 1027.0 1016.4
23 16.07 СЗ 4 н/о {туман} н/о +9.3 +7.4 88 +7 +7 1027.1 1016.5 0.6
01 17.07 СЗ 5 н/о н/о +11.5 +8.5 82 +9 +9 1027.6 1017.0
04 17.07 З 5 н/о н/о +13.2 +7.9 70 +11 +11 1025.1 1014.5
05 17.07 ЮЗ 6 н/о н/о +13.8 +6.9 63 +12 +12 1024.6 1014.0
07 17.07 ЮЗ 4 н/о н/о +13.6 +8.0 69 +12 +12 1024.3 1013.7
08 17.07 З 3 н/о н/о +11.3 +7.6 78 +10 +10 1024.3 1013.7
10 17.07 СЗ 4 н/о н/о +10.5 +9.3 92 +8 +8 1024.7 1014.1
11 17.07 СЗ 4 н/о н/о +9.8 +8.7 93 +7 +7 1025.1 1014.5
13 17.07 СЗ 3 н/о н/о +10.0 +9.1 94 +8 +8 1024.9 1014.3
14 17.07 СЗ 4 н/о {туман} н/о +9.8 +8.7 93 +7 +7 1024.5 1013.9 +15.0
16 17.07 СЗ 3 н/о н/о +9.1 +8.0 93 +7 +7 1023.3 1012.7
17 17.07 СЗ 3 н/о {туман} н/о +9.8 +8.7 93 +7 +7 1023.3 1012.7 0.2
19 17.07 С 4 н/о н/о +8.4 +7.2 92 +5 +5 1022.2 1011.7
20 17.07 С 3 н/о {туман} н/о +7.1 +5.7 91 +4 +4 1022.1 1011.6
22 17.07 С 3 н/о н/о +5.9 +5.0 94 +3 +3 1022.5 1012.0
23 17.07 С 3 н/о {туман} н/о +8.1 +7.0 93 +5 +5 1022.9 1012.3 0.4
01 18.07 СЗ 7 н/о н/о +12.4 +7.7 73 +10 +10 1023.0 1012.4
02 18.07 СЗ 8 н/о н/о +14.3 +7.1 62 +12 +12 1022.3 1011.8 +5.2
04 18.07 СЗ 7 н/о н/о +16.3 +5.3 48 +15 +15 1020.6 1010.1
05 18.07 СЗ 6 н/о н/о +17.0 +5.3 46 +16 +16 1020.0 1009.5
07 18.07 СЗ 5 н/о н/о +16.4 +6.0 50 +16 +16 1020.2 1009.7
08 18.07 СЗ 4 н/о н/о +12.2 +6.7 69 +10 +10 1020.0 1009.5
10 18.07 СЗ 4 н/о н/о +8.5 +4.1 74 +6 +6 1020.6 1010.1
11 18.07 СЗ 3 н/о н/о +7.8 +3.5 74 +5 +5 1021.0 1010.5
13 18.07 СЗ 4 н/о н/о +6.2 +3.5 83 +3 +3 1021.2 1010.7
14 18.07 СЗ 4 н/о н/о +4.3 +2.3 87 0 0 1021.3 1010.8 +17.6
16 18.07 С 3 н/о н/о +3.1 +1.3 88 -1 -1 1020.9 1010.4
17 18.07 СВ 2 н/о н/о +2.1 +0.8 91 -1 -1 1021.0 1010.5
19 18.07 СВ 3 н/о н/о +2.3 +1.1 92 -2 -2 1020.3 1009.8
20 18.07 СВ 2 н/о н/о +2.1 +0.9 92 -1 -1 1020.3 1009.8
22 18.07 штиль 0 н/о н/о +1.2 0.0 92 0 0 1020.7 1010.2
23 18.07 В 2 н/о н/о +4.0 +2.8 92 +2 +2 1020.7 1010.2
01 19.07 С 6 н/о н/о +15.4 +6.4 55 +14 +14 1020.8 1010.3
02 19.07 С 6 н/о н/о +17.9 +6.7 48 +17 +17 1020.1 1009.6 +0.6
04 19.07 С 7 н/о н/о +21.1 +4.6 34 +21 +21 комфорт 1017.5 1007.0
05 19.07 С 7 н/о н/о +21.4 +3.6 31 +22 +22 комфорт 1016.7 1006.2
07 19.07 С 4 н/о н/о +20.7 +4.7 35 +22 +22 комфорт 1016.0 1005.5
08 19.07 С 4 н/о н/о +17.2 +4.9 44 +17 +17 1015.8 1005.3

 

Местоположение метеостанции Уудинна (Южная Австралия, Австралия): широта -33.05 долгота 135.45 высота над уровнем моря 87 м.

В архиве по умолчанию представлена погода в Уудинне за последнюю неделю. Архивные данные за месяц целиком и за предыдущие месяцы, начиная с января 2011 года, Вы можете получить, выбрав интересующий диапазон дат из раскрывающегося списка и нажав кнопку "Ввод!".


*Определитесь, кто Вы:
робот инопланетянин человек

Внимание! Время в таблицах - всемирное. Для получения местного времени необходимо прибавить поправку, которая равна 9.5 ч.

Смотрите также архив погоды в соседних городах и на ближайших метеорологических станциях:

Погода в Миннипа Пирса (Южная Австралия, Австралия) (36 км)
Погода в Кливе аэропорту (Южная Австралия, Австралия) (123 км)
Погода в Камминсе (Южная Австралия, Австралия) (136 км)
Погода в Колте (Южная Австралия, Австралия) (148 км)
Погода в Порт-Линкольне (Южная Австралия, Австралия) (177 км)
Погода в Уиолле (Южная Австралия, Австралия) (193 км)
Погода в Сидуне (Южная Австралия, Австралия) (193 км)
Погода в Мунте (Южная Австралия, Австралия) (220 км)
Погода в Порт Огаста (Южная Австралия, Австралия) (220 км)
Погода в Кадине (Южная Австралия, Австралия) (230 км)

Пояснения к столбцам:

Ветер - указаны скорость ветра в м/с - средняя за 10 мин, порывы в срок и между сроками (в фигурных скобках) и направление, откуда дует ветер: С - северный, СВ - северо-восточный, В - восточный, ЮВ - юго-восточный, Ю - южный, ЮЗ - юго-западный, З - западный, СЗ - северо-западный.
Видимость - горизонтальная дальность видимости в метрах или километрах. При видимости от 1 до 10 км при отсутствии осадков обычно наблюдается дымка, при ухудшении видимости до 1 км и менее - туман. В сухую погоду видимость может ухудшаться дымом, пылью или мглою.
Явления - указаны атмосферные явления, наблюдавшиеся в срок или в последний час перед сроком; фигурными скобками обозначены явления, наблюдавшиеся между сроками (за 1-3 часа до срока); квадратными скобками обозначены град или гололедные отложения с указанием их диаметра в мм.
Облачность - указаны через наклонную черту общая и нижняя облачность в баллах и высота нижней границы облаков в метрах; квадратными скобками обозначены формы облаков: Ci - перистые, Cs - перисто-слоистые, Cc - перисто-кучевые, Ac - высококучевые, As - высокослоистые, Sc - слоисто-кучевые, Ns - слоисто-дождевые, Cu - кучевые, Cb - кучево-дождевые. Подробнее классификацию облаков см. в Атласе облаков (PDF).
T - Температура воздуха - температура, измеренная на высоте 2 м над землей.
Td - Температура точки росы - температура, при понижении до которой содержащийся в воздухе водяной пар достигнет насыщения.
f - Относительная влажность воздуха - влажноcть воздуха, измеренная на высоте 2 м над землей.
Te - Эффективная температура - температура, которую ощущает одетый по сезону человек в тени. Характеристика душности погоды. При расчете учитывается влияние влажности воздуха и скорости ветра на теплоощущения человека.
Tes - Эффективная температура на солнце - температура, которую ощущает человек, с поправкой на солнечный нагрев. Характеристика знойности погоды. Зависит от высоты солнца над горизонтом, облачности и скорости ветра. Ночью, в пасмурную погоду, а также при ветре 12 м/с и более поправка равна нулю.
P - Атмосферное давление - приведенное к уровню моря атмосферное давление.
Po - Атмосферное давление - измеренное на уровне метеостанции атмосферное давление.
Tmin - Минимальная температура - минимум температуры воздуха на высоте 2 м над землей.
Tmax - Максимальная температура - максимум температуры воздуха на высоте 2 м над землей.
R - Количество осадков - Количество выпавших осадков за период времени, мм. При наведении курсора мыши на число - период времени, за который выпало указанное количество осадков.
R24 - Количество осадков - Количество выпавших осадков за 24 часа, мм.
S - Снежный покров - Высота снежного покрова, см. При наведении курсора мыши на число - состояние снежного покрова и степень покрытия местности в баллах.